Regional Weather Roundup
Issued by NWS Grand Forks, ND

Home | Current Version | Previous Version | Graphics & Text | Print | Product List | Glossary On
Versions: 1 2 3 4 5 6 7 8 9 10 11 12 13 14 15 16 17 18 19 20 21 22 23 24 25 26 27 28 29 30 31 32 33 34 35 36 37 38 39 40 41 42 43 44 45 46 47 48 49 50
000
ASUS43 KFGF 241231
RWRFGF
PRAIRIE TO PINES  WEATHER ROUNDUP
NATIONAL WEATHER SERVICE EASTERN NORTH DAKOTA/GRAND FORKS ND
700 AM CDT FRI MAR 24 2017

 **SATELLITE DATA USED TO AUGMENT SKY COVER AT AUTOMATED STATIONS**
 *****  WEATHER ACROSS EASTERN NORTH DAKOTA  *****

CITY           SKY/WX    TMP DP  RH WIND       PRES   REMARKS
GRAND FORKS    FAIR      30  27  88 N10       30.06R WCI  21
6HR MIN TEMP:  30; 6HR MAX TEMP:  35;

GRAND FRKS AFB FAIR      28  25  86 N13       30.07R WCI  18
DEVILS LAKE    FAIR      25  23  92 N9        30.10R WCI  15
6HR MIN TEMP:  25; 6HR MAX TEMP:  32;

FARGO          CLOUDY    35  33  92 N12       30.02R FOG
WAHPETON ARPT  CLOUDY    32  32 100 NW7       30.02R
$$

 ***** WEATHER ACROSS CENTRAL AND WESTERN NORTH DAKOTA  *****

CITY           SKY/WX    TMP DP  RH WIND       PRES   REMARKS
BISMARCK       FAIR      28  26  92 CALM      30.08R
6HR MIN TEMP:  26; 6HR MAX TEMP:  39;

MINOT          FAIR      26  23  88 NW6       30.10R WCI  19
6HR MIN TEMP:  24; 6HR MAX TEMP:  33;

JAMESTOWN      FAIR      30  28  92 NW9       30.05R WCI  22
6HR MIN TEMP:  29; 6HR MAX TEMP:  34;

MINOT AFB      FAIR      25  23  92 N6        30.10R WCI  18
GARRISON         N/A     26  23  88 N10       30.07R WCI  16
WILLISTON      FAIR      24  22  91 CALM      30.08R
6HR MIN TEMP:  24; 6HR MAX TEMP:  33;

DICKINSON      FOG       25  24  96 N3        30.04R VSB 1/2
6HR MIN TEMP:  27; 6HR MAX TEMP:  37;

HETTINGER      FAIR      29  28  96 NW5       30.04R WCI  24
6HR MIN TEMP:  26; 6HR MAX TEMP:  37;

$$

 *****  OTHER AIRPORT OBSERVATIONS IN OUR AREA  *****

CITY           SKY/WX    TMP DP  RH WIND       PRES   REMARKS
WALHALLA       NOT AVBL
GRAFTON AIRPOR FAIR      27  27 100 N12       30.11R WCI  16
VALLEY CITY AR PTSUNNY   30  30 100 NE9       30.07R WCI  22
CANDO          NOT AVBL
CAVALIER APRT  NOT AVBL
GWINNER        CLOUDY    34  34 100 MISG      30.04R FOG
ROLLA          FAIR      23  23 100 N9        30.12R WCI  13
 ***** THE ABOVE OBSERVATIONS ARE NON NWS ARE NOT QUALITY
       CONTROLLED AND MAY MIS-REPORT RAIN FOR SNOW...
$$

  *****  WEATHER ACROSS NORTHERN MINNESOTA  *****

CITY           SKY/WX    TMP DP  RH WIND       PRES   REMARKS
FLAG ISLAND    FAIR      28  25  86 N10       30.03R WCI  19
WARROAD        FAIR      27  23  86 NW9       30.05R WCI  17
ROSEAU         FAIR      28  23  80 N7        30.05R WCI  21
HALLOCK        FAIR      28  25  86 N12       30.09R WCI  18
THF RVR FALLS  FAIR      30  27  88 N12       30.04R WCI  20
6HR MIN TEMP:  30; 6HR MAX TEMP:  34;

BAUDETTE       FAIR      29  25  85 NW13      30.00R WCI  19
6HR MIN TEMP:  29; 6HR MAX TEMP:  35;

WASKISH        CLOUDY    34  30  86 N8        30.01R
CROOKSTON      FAIR      30  30 100 N7        30.07R WCI  23
STEPHEN NDAWN    N/A     27  25  93 N12         N/A  WCI  16
GREENBUSH NDAW   N/A     28  25  86 N10         N/A  WCI  19
$$
  *****  WEATHER ACROSS CENTRAL AND WEST MINNESOTA  *****

CITY           SKY/WX    TMP DP  RH WIND       PRES   REMARKS
FOSSTON        CLOUDY    30  30 100 N6        30.02R FOG     WCI  24
BEMIDJI        CLOUDY    32  32 100 N8        30.00R FOG     WCI  25
PARK RAPIDS    FOG       34  31  88 N7        29.98R VSB 1/2
6HR MIN TEMP:  33; 6HR MAX TEMP:  34;

ELBOW LAKE     CLOUDY    33  33 100 N9        29.99R FOG     WCI  25
6HR MIN TEMP:  32; 6HR MAX TEMP:  33;

WADENA         CLOUDY    32  32 100 NW6       29.98R FOG
DETROIT LAKES  CLOUDY    34  34 100 N6        30.01R FOG
MOORHEAD       CLOUDY    34  34 100 N9        30.04R FOG
FERGUS FALLS   CLOUDY    34  34 100 N6        30.04R FOG
MORRIS MN      CLOUDY    34  34 100 N10       29.97R FOG
STAPLES        CLOUDY    32  32 100 NW5       29.98R FOG
$$
  *****  WEATHER ELSEWHERE ACROSS MINNESOTA  *****

CITY           SKY/WX    TMP DP  RH WIND       PRES   REMARKS
DULUTH         CLOUDY    34  32  92 N6        29.92R FOG
6HR MIN TEMP:  33; 6HR MAX TEMP:  34; 6HR PCP:  0.01;

INTRNTL FALLS  CLOUDY    33  31  92 NW5       29.97R
6HR MIN TEMP:  31; 6HR MAX TEMP:  34;

ELY            CLOUDY    32  32 100 CALM      29.95R FOG
CLOQUET        CLOUDY    34  30  86 NW5       29.93R FOG
WHEATON        MOCLDY    34  32  93 NW9       30.02R FOG
BRAINERD       CLOUDY    33  32  96 N7        29.98R FOG
6HR MIN TEMP:  33; 6HR MAX TEMP:  33; 6HR PCP:  0.01;

HIBBING        CLOUDY    32  31  96 NW6       29.94R FOG
6HR MIN TEMP:  31; 6HR MAX TEMP:  32;

ALEXANDRIA     CLOUDY    34  33  96 N9        29.97R
6HR MIN TEMP:  33; 6HR MAX TEMP:  34;

SAINT CLOUD    CLOUDY    34  34 100 N6        29.93R
6HR MIN TEMP:  34; 6HR MAX TEMP:  35; 6HR PCP: TRACE;

MINNEAPOLIS    CLOUDY    38  35  89 N9G17     29.90S FOG
6HR MIN TEMP:  38; 6HR MAX TEMP:  39; 6HR PCP:  0.01;

$$

  *****  WEATHER ACROSS SOUTH DAKOTA  *****

CITY           SKY/WX    TMP DP  RH WIND       PRES   REMARKS
SIOUX FALLS    CLOUDY    39  36  89 N13       29.87F
6HR MIN TEMP:  39; 6HR MAX TEMP:  43; 6HR PCP:  0.03;

BROOKINGS      CLOUDY    35  33  92 N13       29.90R FOG
WATERTOWN      CLOUDY    33  33 100 N12       29.94R FOG     WCI  24
6HR MIN TEMP:  33; 6HR MAX TEMP:  34;

HURON          CLOUDY    36  36 100 N16       29.96R
6HR MIN TEMP:  36; 6HR MAX TEMP:  39;

SISSETON         N/A     34  34 100 N13       29.99R WCI  25
ABERDEEN       CLOUDY    35  31  85 N14       30.02R
6HR MIN TEMP:  34; 6HR MAX TEMP:  36;

MITCHELL       CLOUDY    39  36  89 N17G23    29.94R
PIERRE         CLOUDY    39  35  86 N9        30.00R
6HR MIN TEMP:  39; 6HR MAX TEMP:  42;

MOBRIDGE       FAIR      36  31  82 NE9       30.00R
RAPID CITY     CLOUDY    42  38  85 NW6       30.04R
6HR MIN TEMP:  41; 6HR MAX TEMP:  43; 6HR PCP: TRACE;

$$

  *****  SOME WEATHER IN NEARBY STATES *****

CITY           SKY/WX    TMP DP  RH WIND       PRES   REMARKS
GLASGOW MT     FAIR      28  25  88 E10       30.04R WCI  19
6HR MIN TEMP:  27; 6HR MAX TEMP:  40;

GREAT FALLS MT FAIR      29  19  66 S9        29.99F WCI  20
6HR MIN TEMP:  24; 6HR MAX TEMP:  36;

CHEYENNE WY    MIX PCPN  33  31  92 N17G28    30.01R WCI  22
6HR MIN TEMP:  33; 6HR MAX TEMP:  35; 6HR PCP: TRACE;

SCOTTSBLUFF NE CLOUDY    42  35  76 N15G23    30.03R
6HR MIN TEMP:  41; 6HR MAX TEMP:  43; 6HR PCP: TRACE;

OMAHA NE       LGT RAIN  52  49  89 NE13      29.73F FOG
6HR MIN TEMP:  53; 6HR MAX TEMP:  71; 6HR PCP:  0.08;

DES MOINES IA  MOCLDY    58  46  64 W3        29.77R
6HR MIN TEMP:  53; 6HR MAX TEMP:  62;

DAVENPORT IA   FAIR      53  45  74 S18       29.86S
6HR MIN TEMP:  45; 6HR MAX TEMP:  53;

CHICAGO IL     MOCLDY    52  42  69 S13       29.91R
6HR MIN TEMP:  44; 6HR MAX TEMP:  53;

EAU CLAIRE WI  LGT RAIN  38  38 100 CALM      29.89S FOG
6HR MIN TEMP:  37; 6HR MAX TEMP:  39; 6HR PCP:  0.06;

LA CROSSE WI   CLOUDY    41  39  93 NW9       29.84R FOG
6HR MIN TEMP:  40; 6HR MAX TEMP:  42; 6HR PCP:  0.04;

$$

  *****  SOME NATIONAL WEATHER *****

CITY           SKY/WX    TMP DP  RH WIND       PRES   REMARKS
LA GUARDIA NY  PTSUNNY   39  25  57 SW9       30.47F
6HR MIN TEMP:  38; 6HR MAX TEMP:  40;

RALEIGH NC     FAIR      38  29  70 S3        30.52S
6HR MIN TEMP:  37; 6HR MAX TEMP:  42;

ATLANTA GA     MOCLDY    56  46  69 SE9       30.43R
6HR MIN TEMP:  56; 6HR MAX TEMP:  59;

NEW ORLEANS LA MOCLDY    68  65  90 SE12      30.15R
6HR MIN TEMP:  67; 6HR MAX TEMP:  69;

OKLAHOMA CITY  MOCLDY    64  54  69 S21G28    29.75S
6HR MIN TEMP:  64; 6HR MAX TEMP:  71;

ALBUQUERQUE NM CLOUDY    46  29  51 NW10      29.88R
6HR MIN TEMP:  42; 6HR MAX TEMP:  46;

SALT LAKE CITY FAIR      36  33  89 SE8       30.18R
6HR MIN TEMP:  34; 6HR MAX TEMP:  37;

LOS ANGELES CA FAIR      51  48  89 E6        30.22F
6HR MIN TEMP:  50; 6HR MAX TEMP:  57;

BOISE ID       FAIR



USA.gov is the U.S. government's official web portal to all federal, state and local government web resources and services.